Location: *
(43.0409°N, 0.1694°E)
Time: 13:25:54
(UTC+00:00)

Meteor 2-6 Rocket - Pass Details

Date: 03 October 2023
Orbit: 806 x 913 km, 81.3° (Epoch: 01 December)

Event Time Altitude Azimuth Distance (km) Brightness Sun altitude
Exits shadow 03:46:25 64° 280° (W) 890 4.0 -24.6°
Maximum altitude 03:46:27 64° 282° (WNW) 890 4.0 -24.6°
Drops below altitude 10° 03:51:49 10° 4° (N) 2,400 6.8 -23.7°
Sets 03:54:15 0° 8° (N) 3,341 7.6 -23.2°
